Location: Newark
(49.8969°N, 3.3422°E)
Time: 22:38:24
(UTC+00:00)

Tiros 1 - Pass Details

Date: 19 January 2021
Orbit: 630 x 664 km, 48.4° (Epoch: 08 March)

Event Time Altitude Azimuth Distance (km) Brightness Sun altitude
Rises 19:08:29 0° 212° (SSW) 2,913 10.9 -26.6°
Reaches altitude 10° 19:11:09 10° 198° (SSW) 2,005 9.8 -27.0°
Enters shadow 19:12:10 15° 189° (S) 1,713 9.4 -27.2°
